START_TIME,STEP,MOV.,P11,t_acc.,P23,t_acc.,P27,t_acc.,A4,t_acc.
1979-08-03 12:00:21.840 ,0,0,1.,4.8,0.,4.8,0.,4.8,0.,4.8
1979-08-03 12:00:26.640 ,0,0,0.,4.8,0.,4.8,0.,4.8,0.,4.8
1979-08-03 12:00:31.440 ,0,0,0.,4.8,0.,4.8,0.,4.8,0.,4.8
1979-08-03 12:00:36.240 ,0,0,0.,4.8,0.,4.8,0.,4.8,0.,4.8
1979-08-03 12:00:41.040 ,0,0,1.,4.8,0.,4.8,0.,4.8,0.,4.8
1979-08-03 12:00:45.840 ,1,0,0.,4.8,0.,4.8,0.,4.8,0.,4.8
1979-08-03 12:00:50.640 ,1,0,1.,4.8,0.,4.8,0.,4.8,0.,4.8
1979-08-03 12:00:55.440 ,1,0,0.,4.8,0.,4.8,0.,4.8,0.,4.8
1979-08-03 12:01:00.240 ,1,0,1.,4.8,0.,4.8,0.,4.8,0.,4.8
1979-08-03 12:01:05.040 ,1,0,0.,4.8,0.,4.8,0.,4.8,0.,4.8
1979-08-03 12:01:09.840 ,1,0,0.,4.8,0.,4.8,0.,4.8,0.,4.8
1979-08-03 12:01:14.640 ,1,0,0.,4.8,0.,4.8,0.,4.8,0.,4.8
1979-08-03 12:01:19.440 ,1,0,1.,4.8,0.,4.8,0.,4.8,0.,4.8
1979-08-03 12:01:24.240 ,1,0,0.,4.8,0.,4.8,0.,4.8,0.,4.8
1979-08-03 12:01:29.040 ,1,0,1.,4.8,0.,4.8,0.,4.8,0.,4.8
1979-08-03 12:01:33.840 ,2,0,0.,4.8,0.,4.8,0.,4.8,0.,4.8
1979-08-03 12:01:38.640 ,2,0,0.,4.8,0.,4.8,0.,4.8,0.,4.8
1979-08-03 12:01:43.440 ,2,0,0.,4.8,0.,4.8,0.,4.8,0.,4.8
1979-08-03 12:01:48.240 ,2,0,1.,4.8,0.,4.8,0.,4.8,0.,4.8
1979-08-03 12:01:53.040 ,2,0,0.,4.8,0.,4.8,0.,4.8,0.,4.8
1979-08-03 12:01:57.840 ,0,0,0.,4.8,0.,4.8,0.,4.8,0.,4.8
1979-08-03 12:02:02.640 ,0,0,1.,4.8,0.,4.8,0.,4.8,0.,4.8
1979-08-03 12:02:07.440 ,0,0,0.,4.8,0.,4.8,0.,4.8,0.,4.8
1979-08-03 12:02:12.240 ,0,0,2.,4.8,0.,4.8,0.,4.8,0.,4.8
1979-08-03 12:02:17.040 ,0,0,0.,4.8,0.,4.8,0.,4.8,0.,4.8
1979-08-03 12:02:21.840 ,3,0,1.,4.8,0.,4.8,0.,4.8,0.,4.8
1979-08-03 12:02:26.640 ,3,0,0.,4.8,0.,4.8,0.,4.8,0.,4.8
1979-08-03 12:02:31.440 ,3,0,2.,4.8,0.,4.8,0.,4.8,0.,4.8
1979-08-03 12:02:36.240 ,3,0,0.,4.8,0.,4.8,0.,4.8,0.,4.8
1979-08-03 12:02:41.040 ,3,0,0.,4.8,0.,4.8,0.,4.8,0.,4.8
1979-08-03 12:02:45.840 ,3,0,0.,4.8,0.,4.8,0.,4.8,0.,4.8
1979-08-03 12:02:50.640 ,3,0,1.,4.8,0.,4.8,0.,4.8,0.,4.8
1979-08-03 12:02:55.440 ,3,0,0.,4.8,0.,4.8,0.,4.8,0.,4.8
1979-08-03 12:03:00.240 ,3,0,2.,4.8,0.,4.8,0.,4.8,0.,4.8
1979-08-03 12:03:05.040 ,3,0,0.,4.8,1.,4.8,0.,4.8,0.,4.8
1979-08-03 12:03:09.840 ,4,0,1.,4.8,0.,4.8,0.,4.8,0.,4.8
1979-08-03 12:03:14.640 ,4,0,0.,4.8,0.,4.8,0.,4.8,0.,4.8
1979-08-03 12:03:19.440 ,4,0,0.,4.8,0.,4.8,0.,4.8,0.,4.8
1979-08-03 12:03:24.240 ,4,0,0.,4.8,0.,4.8,0.,4.8,0.,4.8
1979-08-03 12:03:29.040 ,4,0,0.,4.8,0.,4.8,0.,4.8,0.,4.8
1979-08-03 12:03:33.840 ,4,0,0.,4.8,0.,4.8,0.,4.8,0.,4.8
1979-08-03 12:03:38.640 ,4,0,0.,4.8,0.,4.8,0.,4.8,0.,4.8
1979-08-03 12:03:43.440 ,4,0,2.,4.8,0.,4.8,0.,4.8,0.,4.8
1979-08-03 12:03:48.240 ,4,0,0.,4.8,0.,4.8,0.,4.8,0.,4.8
1979-08-03 12:03:53.040 ,4,0,0.,4.8,0.,4.8,0.,4.8,0.,4.8
1979-08-03 12:03:57.840 ,5,0,1.,4.8,0.,4.8,0.,4.8,0.,4.8
1979-08-03 12:04:02.640 ,5,0,0.,4.8,0.,4.8,1.,4.8,0.,4.8
1979-08-03 12:04:07.440 ,5,0,2.,4.8,0.,4.8,0.,4.8,0.,4.8
1979-08-03 12:04:12.240 ,5,0,0.,4.8,0.,4.8,0.,4.8,0.,4.8
1979-08-03 12:04:17.040 ,5,0,0.,4.8,0.,4.8,0.,4.8,0.,4.8
1979-08-03 12:04:21.840 ,5,0,0.,4.8,0.,4.8,0.,4.8,0.,4.8
1979-08-03 12:04:26.640 ,5,0,1.,4.8,0.,4.8,0.,4.8,0.,4.8
1979-08-03 12:04:31.440 ,5,0,0.,4.8,0.,4.8,0.,4.8,0.,4.8
1979-08-03 12:04:36.240 ,5,0,0.,4.8,0.,4.8,0.,4.8,0.,4.8
1979-08-03 12:04:41.040 ,5,0,2.,4.8,0.,4.8,0.,4.8,0.,4.8
1979-08-03 12:04:45.840 ,6,0,1.,4.8,0.,4.8,0.,4.8,0.,4.8
1979-08-03 12:04:50.640 ,6,0,0.,4.8,0.,4.8,0.,4.8,0.,4.8
1979-08-03 12:04:55.440 ,6,0,1.,4.8,0.,4.8,0.,4.8,0.,4.8
1979-08-03 12:05:00.240 ,6,0,0.,4.8,0.,4.8,0.,4.8,0.,4.8
1979-08-03 12:05:05.040 ,6,0,2.,4.8,0.,4.8,1.,4.8,0.,4.8
1979-08-03 12:05:09.840 ,6,0,1.,4.8,0.,4.8,0.,4.8,0.,4.8
1979-08-03 12:05:14.640 ,6,0,0.,4.8,0.,4.8,0.,4.8,0.,4.8
1979-08-03 12:05:19.440 ,6,0,0.,4.8,0.,4.8,0.,4.8,0.,4.8
1979-08-03 12:05:24.240 ,6,0,1.,4.8,0.,4.8,0.,4.8,0.,4.8
1979-08-03 12:05:29.040 ,6,0,0.,4.8,0.,4.8,0.,4.8,0.,4.8
1979-08-03 12:05:33.840 ,7,0,1.,4.8,0.,4.8,0.,4.8,0.,4.8
1979-08-03 12:05:38.640 ,7,0,0.,4.8,0.,4.8,0.,4.8,0.,4.8
1979-08-03 12:05:43.440 ,7,0,0.,4.8,0.,4.8,0.,4.8,0.,4.8
1979-08-03 12:05:48.240 ,7,0,0.,4.8,1.,4.8,0.,4.8,0.,4.8
1979-08-03 12:05:53.040 ,7,0,0.,4.8,0.,4.8,0.,4.8,0.,4.8
1979-08-03 12:05:57.840 ,7,0,1.,4.8,0.,4.8,0.,4.8,0.,4.8
1979-08-03 12:06:02.640 ,7,0,1.,4.8,0.,4.8,0.,4.8,0.,4.8
1979-08-03 12:06:07.440 ,7,0,0.,4.8,0.,4.8,0.,4.8,0.,4.8
1979-08-03 12:06:12.240 ,7,0,0.,4.8,0.,4.8,0.,4.8,0.,4.8
1979-08-03 12:06:17.040 ,7,0,0.,4.8,0.,4.8,0.,4.8,0.,4.8
1979-08-03 12:06:21.840 ,7,0,2.,4.8,0.,4.8,0.,4.8,0.,4.8
1979-08-03 12:06:26.640 ,7,0,0.,4.8,0.,4.8,0.,4.8,0.,4.8
1979-08-03 12:06:31.440 ,7,0,0.,4.8,0.,4.8,0.,4.8,0.,4.8
1979-08-03 12:06:36.240 ,7,0,0.,4.8,0.,4.8,0.,4.8,0.,4.8
1979-08-03 12:06:41.040 ,7,0,0.,4.8,0.,4.8,0.,4.8,0.,4.8
1979-08-03 12:06:45.840 ,7,0,0.,4.8,0.,4.8,0.,4.8,0.,4.8
1979-08-03 12:06:50.640 ,7,0,0.,4.8,0.,4.8,0.,4.8,0.,4.8
1979-08-03 12:06:55.440 ,7,0,0.,4.8,0.,4.8,0.,4.8,0.,4.8
1979-08-03 12:07:00.240 ,7,0,1.,4.8,0.,4.8,0.,4.8,0.,4.8
1979-08-03 12:07:05.040 ,7,0,1.,4.8,0.,4.8,0.,4.8,0.,4.8
1979-08-03 12:07:09.840 ,6,0,0.,4.8,1.,4.8,0.,4.8,0.,4.8
1979-08-03 12:07:14.640 ,6,0,0.,4.8,0.,4.8,0.,4.8,0.,4.8
1979-08-03 12:07:19.440 ,6,0,1.,4.8,0.,4.8,0.,4.8,0.,4.8
1979-08-03 12:07:24.240 ,6,0,2.,4.8,0.,4.8,0.,4.8,0.,4.8
1979-08-03 12:07:29.040 ,6,0,2.,4.8,0.,4.8,0.,4.8,0.,4.8
1979-08-03 12:07:33.840 ,6,0,1.,4.8,0.,4.8,0.,4.8,0.,4.8
1979-08-03 12:07:38.640 ,6,0,0.,4.8,0.,4.8,0.,4.8,0.,4.8
1979-08-03 12:07:43.440 ,6,0,0.,4.8,0.,4.8,0.,4.8,0.,4.8
1979-08-03 12:07:48.240 ,6,0,0.,4.8,0.,4.8,0.,4.8,0.,4.8
1979-08-03 12:07:53.040 ,6,0,1.,4.8,0.,4.8,0.,4.8,0.,4.8
1979-08-03 12:07:57.840 ,5,0,0.,4.8,0.,4.8,0.,4.8,0.,4.8
1979-08-03 12:08:02.640 ,5,0,0.,4.8,0.,4.8,0.,4.8,0.,4.8
1979-08-03 12:08:07.440 ,5,0,0.,4.8,0.,4.8,0.,4.8,0.,4.8
1979-08-03 12:08:12.240 ,5,0,0.,4.8,0.,4.8,0.,4.8,0.,4.8
1979-08-03 12:08:17.040 ,5,0,2.,4.8,1.,4.8,0.,4.8,0.,4.8
1979-08-03 12:08:21.840 ,5,0,0.,4.8,0.,4.8,0.,4.8,0.,4.8
1979-08-03 12:08:26.640 ,5,0,0.,4.8,0.,4.8,0.,4.8,0.,4.8
1979-08-03 12:08:31.440 ,5,0,1.,4.8,0.,4.8,0.,4.8,0.,4.8
1979-08-03 12:08:36.240 ,5,0,0.,4.8,0.,4.8,0.,4.8,0.,4.8
1979-08-03 12:08:41.040 ,5,0,1.,4.8,0.,4.8,0.,4.8,0.,4.8
1979-08-03 12:08:45.840 ,4,0,0.,4.8,0.,4.8,0.,4.8,0.,4.8
1979-08-03 12:08:50.640 ,4,0,0.,4.8,1.,4.8,0.,4.8,0.,4.8
1979-08-03 12:08:55.440 ,4,0,0.,4.8,0.,4.8,0.,4.8,0.,4.8
1979-08-03 12:09:00.240 ,4,0,0.,4.8,0.,4.8,0.,4.8,0.,4.8
1979-08-03 12:09:05.040 ,4,0,2.,4.8,0.,4.8,0.,4.8,0.,4.8
1979-08-03 12:09:09.840 ,4,0,0.,4.8,0.,4.8,0.,4.8,0.,4.8
1979-08-03 12:09:14.640 ,4,0,0.,4.8,0.,4.8,0.,4.8,0.,4.8
1979-08-03 12:09:19.440 ,4,0,0.,4.8,0.,4.8,0.,4.8,0.,4.8
1979-08-03 12:09:24.240 ,4,0,0.,4.8,0.,4.8,0.,4.8,0.,4.8
1979-08-03 12:09:29.040 ,4,0,1.,4.8,1.,4.8,0.,4.8,0.,4.8
1979-08-03 12:09:33.840 ,3,0,1.,4.8,0.,4.8,1.,4.8,0.,4.8
1979-08-03 12:09:38.640 ,3,0,0.,4.8,0.,4.8,0.,4.8,0.,4.8
1979-08-03 12:09:43.440 ,3,0,0.,4.8,0.,4.8,0.,4.8,0.,4.8
1979-08-03 12:09:48.240 ,3,0,0.,4.8,0.,4.8,1.,4.8,0.,4.8
1979-08-03 12:09:53.040 ,3,0,0.,4.8,0.,4.8,0.,4.8,0.,4.8
1979-08-03 12:09:57.840 ,3,0,0.,4.8,0.,4.8,0.,4.8,0.,4.8
1979-08-03 12:10:02.640 ,3,0,1.,4.8,0.,4.8,0.,4.8,0.,4.8
1979-08-03 12:10:07.440 ,3,0,0.,4.8,0.,4.8,0.,4.8,0.,4.8
1979-08-03 12:10:12.240 ,3,0,0.,4.8,0.,4.8,0.,4.8,0.,4.8
1979-08-03 12:10:17.040 ,3,0,1.,4.8,0.,4.8,0.,4.8,0.,4.8
1979-08-03 12:10:21.840 ,2,0,0.,4.8,0.,4.8,0.,4.8,0.,4.8
1979-08-03 12:10:26.640 ,2,0,0.,4.8,0.,4.8,0.,4.8,0.,4.8
1979-08-03 12:10:31.440 ,2,0,0.,4.8,1.,4.8,1.,4.8,0.,4.8
1979-08-03 12:10:36.240 ,2,0,0.,4.8,1.,4.8,0.,4.8,0.,4.8
1979-08-03 12:10:41.040 ,2,0,0.,4.8,0.,4.8,0.,4.8,0.,4.8
1979-08-03 12:10:45.840 ,2,0,0.,4.8,0.,4.8,0.,4.8,0.,4.8
1979-08-03 12:10:50.640 ,2,0,1.,4.8,0.,4.8,1.,4.8,0.,4.8
1979-08-03 12:10:55.440 ,2,0,0.,4.8,0.,4.8,0.,4.8,0.,4.8
1979-08-03 12:11:00.240 ,2,0,2.,4.8,0.,4.8,1.,4.8,0.,4.8
1979-08-03 12:11:05.040 ,2,0,0.,4.8,0.,4.8,2.,4.8,0.,4.8
1979-08-03 12:11:09.840 ,1,0,0.,4.8,0.,4.8,0.,4.8,0.,4.8
1979-08-03 12:11:14.640 ,1,0,1.,4.8,0.,4.8,0.,4.8,0.,4.8
1979-08-03 12:11:19.440 ,1,0,0.,4.8,0.,4.8,1.,4.8,0.,4.8
1979-08-03 12:11:24.240 ,1,0,0.,4.8,0.,4.8,0.,4.8,0.,4.8
1979-08-03 12:11:29.040 ,1,0,0.,4.8,0.,4.8,0.,4.8,0.,4.8
1979-08-03 12:11:33.840 ,1,0,2.,4.8,0.,4.8,1.,4.8,0.,4.8
1979-08-03 12:11:38.640 ,1,0,0.,4.8,0.,4.8,0.,4.8,0.,4.8
1979-08-03 12:11:43.440 ,1,0,0.,4.8,0.,4.8,0.,4.8,0.,4.8
1979-08-03 12:11:48.240 ,1,0,0.,4.8,0.,4.8,0.,4.8,0.,4.8
1979-08-03 12:11:53.040 ,1,0,1.,4.8,0.,4.8,0.,4.8,0.,4.8
1979-08-03 12:11:57.840 ,0,0,0.,4.8,0.,4.8,0.,4.8,0.,4.8
1979-08-03 12:12:02.640 ,0,0,0.,4.8,1.,4.8,0.,4.8,0.,4.8
1979-08-03 12:12:07.440 ,0,0,1.,4.8,0.,4.8,0.,4.8,0.,4.8
1979-08-03 12:12:12.240 ,0,0,0.,4.8,0.,4.8,0.,4.8,0.,4.8
1979-08-03 12:12:17.040 ,0,0,0.,4.8,0.,4.8,0.,4.8,0.,4.8
1979-08-03 12:12:21.840 ,0,0,0.,4.8,0.,4.8,0.,4.8,0.,4.8
1979-08-03 12:12:26.640 ,0,0,0.,4.8,0.,4.8,0.,4.8,0.,4.8
1979-08-03 12:12:31.440 ,0,0,0.,4.8,0.,4.8,0.,4.8,0.,4.8
1979-08-03 12:12:36.240 ,0,0,0.,4.8,0.,4.8,0.,4.8,0.,4.8
1979-08-03 12:12:41.040 ,0,0,0.,4.8,0.,4.8,0.,4.8,0.,4.8
1979-08-03 12:12:45.840 ,0,0,1.,4.8,0.,4.8,0.,4.8,0.,4.8
1979-08-03 12:12:50.640 ,0,0,1.,4.8,0.,4.8,0.,4.8,0.,4.8
1979-08-03 12:12:55.440 ,0,0,0.,4.8,0.,4.8,0.,4.8,0.,4.8
1979-08-03 12:13:00.240 ,0,0,0.,4.8,0.,4.8,0.,4.8,0.,4.8
1979-08-03 12:13:05.040 ,0,0,0.,4.8,0.,4.8,1.,4.8,0.,4.8
1979-08-03 12:13:09.840 ,0,0,1.,4.8,0.,4.8,0.,4.8,0.,4.8
1979-08-03 12:13:14.640 ,0,0,0.,4.8,0.,4.8,0.,4.8,0.,4.8
1979-08-03 12:13:19.440 ,0,0,0.,4.8,0.,4.8,0.,4.8,0.,4.8
1979-08-03 12:13:24.240 ,0,0,0.,4.8,0.,4.8,0.,4.8,0.,4.8
1979-08-03 12:13:29.040 ,0,0,0.,4.8,0.,4.8,0.,4.8,0.,4.8
1979-08-03 12:13:33.840 ,1,0,0.,4.8,0.,4.8,0.,4.8,0.,4.8
1979-08-03 12:13:38.640 ,1,0,0.,4.8,0.,4.8,0.,4.8,0.,4.8
1979-08-03 12:13:43.440 ,1,0,1.,4.8,0.,4.8,0.,4.8,0.,4.8
1979-08-03 12:13:48.240 ,1,0,0.,4.8,0.,4.8,0.,4.8,0.,4.8
1979-08-03 12:13:53.040 ,1,0,0.,4.8,0.,4.8,0.,4.8,0.,4.8
1979-08-03 12:13:57.840 ,1,0,0.,4.8,0.,4.8,0.,4.8,1.,4.8
1979-08-03 12:14:02.640 ,1,0,0.,4.8,0.,4.8,0.,4.8,0.,4.8
1979-08-03 12:14:07.440 ,1,0,0.,4.8,0.,4.8,1.,4.8,1.,4.8
1979-08-03 12:14:12.240 ,1,0,0.,4.8,0.,4.8,0.,4.8,0.,4.8
1979-08-03 12:14:17.040 ,1,0,1.,4.8,0.,4.8,0.,4.8,0.,4.8
1979-08-03 12:14:21.840 ,2,0,0.,4.8,0.,4.8,0.,4.8,0.,4.8
1979-08-03 12:14:26.640 ,2,0,0.,4.8,0.,4.8,0.,4.8,0.,4.8
1979-08-03 12:14:31.440 ,2,0,1.,4.8,0.,4.8,0.,4.8,0.,4.8
1979-08-03 12:14:36.240 ,2,0,0.,4.8,0.,4.8,0.,4.8,0.,4.8
1979-08-03 12:14:41.040 ,2,0,0.,4.8,0.,4.8,1.,4.8,0.,4.8
1979-08-03 12:14:45.840 ,2,0,0.,4.8,0.,4.8,0.,4.8,0.,4.8
1979-08-03 12:14:50.640 ,2,0,0.,4.8,0.,4.8,1.,4.8,0.,4.8
1979-08-03 12:14:55.440 ,2,0,0.,4.8,0.,4.8,0.,4.8,0.,4.8
1979-08-03 12:15:00.240 ,2,0,1.,4.8,0.,4.8,0.,4.8,0.,4.8
1979-08-03 12:15:05.040 ,2,0,1.,4.8,1.,4.8,0.,4.8,0.,4.8
1979-08-03 12:15:09.840 ,3,0,0.,4.8,0.,4.8,0.,4.8,0.,4.8
1979-08-03 12:15:14.640 ,3,0,0.,4.8,0.,4.8,0.,4.8,0.,4.8
1979-08-03 12:15:19.440 ,3,0,0.,4.8,0.,4.8,1.,4.8,0.,4.8
1979-08-03 12:15:24.240 ,3,0,0.,4.8,0.,4.8,0.,4.8,0.,4.8
1979-08-03 12:15:29.040 ,3,0,0.,4.8,0.,4.8,0.,4.8,0.,4.8
1979-08-03 12:15:33.840 ,3,0,0.,4.8,0.,4.8,0.,4.8,0.,4.8
1979-08-03 12:15:38.640 ,3,0,0.,4.8,0.,4.8,0.,4.8,0.,4.8
1979-08-03 12:15:43.440 ,3,0,1.,4.8,0.,4.8,0.,4.8,0.,4.8
1979-08-03 12:15:48.240 ,3,0,0.,4.8,0.,4.8,0.,4.8,0.,4.8
1979-08-03 12:15:53.040 ,3,0,0.,4.8,0.,4.8,0.,4.8,0.,4.8
1979-08-03 12:15:57.840 ,4,0,1.,4.8,0.,4.8,0.,4.8,0.,4.8
1979-08-03 12:16:02.640 ,4,0,1.,4.8,0.,4.8,0.,4.8,0.,4.8
1979-08-03 12:16:07.440 ,4,0,0.,4.8,0.,4.8,0.,4.8,0.,4.8
1979-08-03 12:16:12.240 ,4,0,2.,4.8,0.,4.8,0.,4.8,0.,4.8
1979-08-03 12:16:17.040 ,4,0,0.,4.8,0.,4.8,0.,4.8,0.,4.8
1979-08-03 12:16:21.840 ,4,0,0.,4.8,1.,4.8,0.,4.8,0.,4.8
1979-08-03 12:16:26.640 ,4,0,0.,4.8,1.,4.8,0.,4.8,0.,4.8
1979-08-03 12:16:31.440 ,4,0,0.,4.8,0.,4.8,0.,4.8,0.,4.8
1979-08-03 12:16:36.240 ,4,0,0.,4.8,1.,4.8,0.,4.8,0.,4.8
1979-08-03 12:16:41.040 ,4,0,0.,4.8,0.,4.8,0.,4.8,0.,4.8
1979-08-03 12:16:45.840 ,5,0,1.,4.8,0.,4.8,0.,4.8,0.,4.8
1979-08-03 12:16:50.640 ,5,0,1.,4.8,0.,4.8,0.,4.8,0.,4.8
1979-08-03 12:16:55.440 ,5,0,0.,4.8,0.,4.8,0.,4.8,0.,4.8
1979-08-03 12:17:00.240 ,5,0,3.,4.8,0.,4.8,1.,4.8,0.,4.8
1979-08-03 12:17:05.040 ,5,0,0.,4.8,0.,4.8,0.,4.8,0.,4.8
1979-08-03 12:17:09.840 ,5,0,0.,4.8,0.,4.8,0.,4.8,0.,4.8
1979-08-03 12:17:14.640 ,5,0,0.,4.8,0.,4.8,0.,4.8,0.,4.8
1979-08-03 12:17:19.440 ,5,0,1.,4.8,0.,4.8,0.,4.8,0.,4.8
1979-08-03 12:17:24.240 ,5,0,0.,4.8,0.,4.8,0.,4.8,0.,4.8
1979-08-03 12:17:29.040 ,5,0,0.,4.8,0.,4.8,1.,4.8,0.,4.8
1979-08-03 12:17:33.840 ,6,0,0.,4.8,0.,4.8,0.,4.8,0.,4.8
1979-08-03 12:17:38.640 ,6,0,0.,4.8,0.,4.8,0.,4.8,0.,4.8
1979-08-03 12:17:43.440 ,6,0,0.,4.8,0.,4.8,0.,4.8,0.,4.8
1979-08-03 12:17:48.240 ,6,0,0.,4.8,0.,4.8,0.,4.8,0.,4.8
1979-08-03 12:17:53.040 ,6,0,0.,4.8,0.,4.8,0.,4.8,0.,4.8
1979-08-03 12:17:57.840 ,6,0,0.,4.8,0.,4.8,0.,4.8,0.,4.8
1979-08-03 12:18:02.640 ,6,0,1.,4.8,0.,4.8,0.,4.8,0.,4.8
1979-08-03 12:18:07.440 ,6,0,0.,4.8,0.,4.8,0.,4.8,0.,4.8
1979-08-03 12:18:12.240 ,6,0,1.,4.8,0.,4.8,0.,4.8,0.,4.8
1979-08-03 12:18:17.040 ,6,0,0.,4.8,0.,4.8,0.,4.8,0.,4.8
1979-08-03 12:18:21.840 ,7,0,2.,4.8,0.,4.8,0.,4.8,0.,4.8
1979-08-03 12:18:26.640 ,7,0,1.,4.8,0.,4.8,0.,4.8,0.,4.8
1979-08-03 12:18:31.440 ,7,0,0.,4.8,1.,4.8,0.,4.8,0.,4.8
1979-08-03 12:18:36.240 ,7,0,0.,4.8,0.,4.8,0.,4.8,0.,4.8
1979-08-03 12:18:41.040 ,7,0,1.,4.8,0.,4.8,0.,4.8,0.,4.8
1979-08-03 12:18:45.840 ,7,0,1.,4.8,0.,4.8,0.,4.8,0.,4.8
1979-08-03 12:18:50.640 ,7,0,2.,4.8,0.,4.8,1.,4.8,0.,4.8
1979-08-03 12:18:55.440 ,7,0,1.,4.8,0.,4.8,0.,4.8,0.,4.8
1979-08-03 12:19:00.240 ,7,0,0.,4.8,0.,4.8,0.,4.8,0.,4.8
1979-08-03 12:19:05.040 ,7,0,0.,4.8,0.,4.8,0.,4.8,0.,4.8
1979-08-03 12:19:09.840 ,3,1,0.,4.8,0.,4.8,0.,4.8,0.,4.8
1979-08-03 12:19:14.640 ,3,1,0.,4.8,0.,4.8,0.,4.8,0.,4.8
1979-08-03 12:19:19.440 ,3,1,1.,4.8,0.,4.8,0.,4.8,0.,4.8
1979-08-03 12:19:24.240 ,3,1,0.,4.8,0.,4.8,0.,4.8,0.,4.8
1979-08-03 12:19:29.040 ,3,1,0.,4.8,0.,4.8,0.,4.8,0.,4.8
1979-08-03 12:19:33.840 ,0,1,1.,4.8,0.,4.8,1.,4.8,0.,4.8
1979-08-03 12:19:38.640 ,0,1,0.,4.8,0.,4.8,1.,4.8,0.,4.8
1979-08-03 12:19:43.440 ,0,1,1.,4.8,0.,4.8,0.,4.8,0.,4.8
1979-08-03 12:19:48.240 ,0,1,0.,4.8,0.,4.8,0.,4.8,0.,4.8
1979-08-03 12:19:53.040 ,0,1,0.,4.8,0.,4.8,0.,4.8,0.,4.8
1979-08-03 12:19:57.840 ,4,1,0.,4.8,0.,4.8,0.,4.8,0.,4.8
1979-08-03 12:20:02.640 ,4,1,1.,4.8,0.,4.8,0.,4.8,0.,4.8
1979-08-03 12:20:07.440 ,4,1,1.,4.8,0.,4.8,0.,4.8,0.,4.8
1979-08-03 12:20:12.240 ,4,1,3.,4.8,0.,4.8,1.,4.8,0.,4.8
1979-08-03 12:20:17.040 ,4,1,1.,4.8,0.,4.8,0.,4.8,0.,4.8
1979-08-03 12:20:21.840 ,7,1,0.,4.8,0.,4.8,1.,4.8,0.,4.8
1979-08-03 12:20:26.640 ,7,1,0.,4.8,0.,4.8,0.,4.8,0.,4.8
1979-08-03 12:20:31.440 ,7,1,1.,4.8,0.,4.8,0.,4.8,0.,4.8
1979-08-03 12:20:36.240 ,7,1,0.,4.8,0.,4.8,0.,4.8,0.,4.8
1979-08-03 12:20:41.040 ,7,1,0.,4.8,0.,4.8,0.,4.8,0.,4.8
1979-08-03 12:20:45.840 ,3,1,1.,4.8,0.,4.8,0.,4.8,0.,4.8
1979-08-03 12:20:50.640 ,3,1,0.,4.8,0.,4.8,0.,4.8,0.,4.8
1979-08-03 12:20:55.440 ,3,1,2.,4.8,0.,4.8,0.,4.8,0.,4.8
1979-08-03 12:21:00.240 ,3,1,0.,4.8,0.,4.8,0.,4.8,0.,4.8
1979-08-03 12:21:05.040 ,3,1,0.,4.8,0.,4.8,1.,4.8,0.,4.8
1979-08-03 12:21:09.840 ,0,1,1.,4.8,0.,4.8,0.,4.8,0.,4.8
1979-08-03 12:21:14.640 ,0,1,1.,4.8,0.,4.8,0.,4.8,0.,4.8
1979-08-03 12:21:19.440 ,0,1,0.,4.8,0.,4.8,0.,4.8,0.,4.8
1979-08-03 12:21:24.240 ,0,1,0.,4.8,0.,4.8,0.,4.8,0.,4.8
1979-08-03 12:21:29.040 ,0,1,0.,4.8,0.,4.8,0.,4.8,0.,4.8
1979-08-03 12:21:33.840 ,4,1,0.,4.8,0.,4.8,0.,4.8,0.,4.8
1979-08-03 12:21:38.640 ,4,1,0.,4.8,1.,4.8,0.,4.8,0.,4.8
1979-08-03 12:21:43.440 ,4,1,0.,4.8,0.,4.8,0.,4.8,0.,4.8
1979-08-03 12:21:48.240 ,4,1,0.,4.8,0.,4.8,1.,4.8,0.,4.8
1979-08-03 12:21:53.040 ,4,1,0.,4.8,0.,4.8,0.,4.8,0.,4.8
1979-08-03 12:21:57.840 ,7,1,1.,4.8,0.,4.8,0.,4.8,0.,4.8
1979-08-03 12:22:02.640 ,7,1,0.,4.8,0.,4.8,0.,4.8,0.,4.8
1979-08-03 12:22:07.440 ,7,1,0.,4.8,0.,4.8,0.,4.8,0.,4.8
1979-08-03 12:22:12.240 ,7,1,1.,4.8,0.,4.8,0.,4.8,0.,4.8
1979-08-03 12:22:17.040 ,7,1,0.,4.8,0.,4.8,0.,4.8,0.,4.8
1979-08-03 12:22:21.840 ,3,1,1.,4.8,0.,4.8,0.,4.8,0.,4.8
1979-08-03 12:22:26.640 ,3,1,1.,4.8,0.,4.8,0.,4.8,0.,4.8
1979-08-03 12:22:31.440 ,3,1,0.,4.8,0.,4.8,1.,4.8,0.,4.8
1979-08-03 12:22:36.240 ,3,1,0.,4.8,0.,4.8,0.,4.8,0.,4.8
1979-08-03 12:22:41.040 ,3,1,1.,4.8,0.,4.8,1.,4.8,0.,4.8
1979-08-03 12:22:45.840 ,0,1,0.,4.8,0.,4.8,0.,4.8,0.,4.8
1979-08-03 12:22:50.640 ,0,1,0.,4.8,0.,4.8,1.,4.8,0.,4.8
1979-08-03 12:22:55.440 ,0,1,1.,4.8,0.,4.8,0.,4.8,0.,4.8
1979-08-03 12:23:00.240 ,0,1,1.,4.8,0.,4.8,1.,4.8,0.,4.8
1979-08-03 12:23:05.040 ,0,1,0.,4.8,0.,4.8,0.,4.8,0.,4.8
1979-08-03 12:23:09.840 ,4,1,2.,4.8,0.,4.8,1.,4.8,0.,4.8
1979-08-03 12:23:14.640 ,4,1,0.,4.8,0.,4.8,1.,4.8,0.,4.8
1979-08-03 12:23:19.440 ,4,1,0.,4.8,0.,4.8,0.,4.8,0.,4.8
1979-08-03 12:23:24.240 ,4,1,0.,4.8,1.,4.8,0.,4.8,0.,4.8
1979-08-03 12:23:29.040 ,4,1,0.,4.8,0.,4.8,0.,4.8,0.,4.8
1979-08-03 12:23:33.840 ,7,1,0.,4.8,0.,4.8,1.,4.8,0.,4.8
1979-08-03 12:23:38.640 ,7,1,1.,4.8,0.,4.8,0.,4.8,0.,4.8
1979-08-03 12:23:43.440 ,7,1,0.,4.8,0.,4.8,1.,4.8,0.,4.8
1979-08-03 12:23:48.240 ,7,1,0.,4.8,0.,4.8,1.,4.8,0.,4.8
1979-08-03 12:23:53.040 ,7,1,0.,4.8,0.,4.8,0.,4.8,0.,4.8
1979-08-03 12:23:57.840 ,3,1,0.,4.8,0.,4.8,0.,4.8,0.,4.8
1979-08-03 12:24:02.640 ,3,1,1.,4.8,0.,4.8,0.,4.8,0.,4.8
1979-08-03 12:24:07.440 ,3,1,0.,4.8,0.,4.8,0.,4.8,0.,4.8
1979-08-03 12:24:12.240 ,3,1,0.,4.8,0.,4.8,1.,4.8,0.,4.8
1979-08-03 12:24:17.040 ,3,1,1.,4.8,0.,4.8,1.,4.8,0.,4.8
1979-08-03 12:24:21.840 ,0,1,0.,4.8,0.,4.8,0.,4.8,0.,4.8
1979-08-03 12:24:26.640 ,0,1,1.,4.8,0.,4.8,0.,4.8,0.,4.8
1979-08-03 12:24:31.440 ,0,1,0.,4.8,0.,4.8,0.,4.8,0.,4.8
1979-08-03 12:24:36.240 ,0,1,0.,4.8,0.,4.8,0.,4.8,0.,4.8
1979-08-03 12:24:41.040 ,0,1,0.,4.8,0.,4.8,0.,4.8,0.,4.8
1979-08-03 12:24:45.840 ,4,1,0.,4.8,0.,4.8,0.,4.8,0.,4.8
1979-08-03 12:24:50.640 ,4,1,1.,4.8,0.,4.8,0.,4.8,0.,4.8
1979-08-03 12:24:55.440 ,4,1,0.,4.8,0.,4.8,0.,4.8,0.,4.8
1979-08-03 12:25:00.240 ,4,1,1.,4.8,0.,4.8,0.,4.8,0.,4.8
1979-08-03 12:25:05.040 ,4,1,0.,4.8,0.,4.8,0.,4.8,0.,4.8
1979-08-03 12:25:09.840 ,7,1,1.,4.8,0.,4.8,1.,4.8,0.,4.8
1979-08-03 12:25:14.640 ,7,1,0.,4.8,0.,4.8,0.,4.8,0.,4.8
1979-08-03 12:25:19.440 ,7,1,1.,4.8,0.,4.8,1.,4.8,0.,4.8
1979-08-03 12:25:24.240 ,7,1,0.,4.8,0.,4.8,0.,4.8,0.,4.8
1979-08-03 12:25:29.040 ,7,1,1.,4.8,0.,4.8,0.,4.8,0.,4.8
1979-08-03 12:25:33.840 ,3,1,0.,4.8,0.,4.8,0.,4.8,0.,4.8
1979-08-03 12:25:38.640 ,3,1,0.,4.8,0.,4.8,0.,4.8,0.,4.8
1979-08-03 12:25:43.440 ,3,1,0.,4.8,0.,4.8,0.,4.8,0.,4.8
1979-08-03 12:25:48.240 ,3,1,1.,4.8,0.,4.8,0.,4.8,0.,4.8
1979-08-03 12:25:53.040 ,3,1,0.,4.8,0.,4.8,0.,4.8,0.,4.8
1979-08-03 12:25:57.840 ,0,1,2.,4.8,0.,4.8,0.,4.8,1.,4.8
1979-08-03 12:26:02.640 ,0,1,0.,4.8,0.,4.8,0.,4.8,0.,4.8
1979-08-03 12:26:07.440 ,0,1,0.,4.8,0.,4.8,1.,4.8,0.,4.8
1979-08-03 12:26:12.240 ,0,1,0.,4.8,0.,4.8,0.,4.8,0.,4.8
1979-08-03 12:26:17.040 ,0,1,0.,4.8,0.,4.8,0.,4.8,0.,4.8
1979-08-03 12:26:21.840 ,4,1,0.,4.8,0.,4.8,0.,4.8,0.,4.8
1979-08-03 12:26:26.640 ,4,1,0.,4.8,0.,4.8,0.,4.8,0.,4.8
1979-08-03 12:26:31.440 ,4,1,2.,4.8,0.,4.8,0.,4.8,0.,4.8
1979-08-03 12:26:36.240 ,4,1,2.,4.8,0.,4.8,0.,4.8,0.,4.8
1979-08-03 12:26:41.040 ,4,1,0.,4.8,0.,4.8,0.,4.8,0.,4.8
1979-08-03 12:26:45.840 ,7,1,0.,4.8,0.,4.8,0.,4.8,0.,4.8
1979-08-03 12:26:50.640 ,7,1,0.,4.8,0.,4.8,0.,4.8,0.,4.8
1979-08-03 12:26:55.440 ,7,1,1.,4.8,1.,4.8,0.,4.8,0.,4.8
1979-08-03 12:27:00.240 ,7,1,1.,4.8,0.,4.8,0.,4.8,0.,4.8
1979-08-03 12:27:05.040 ,7,1,2.,4.8,0.,4.8,0.,4.8,0.,4.8
1979-08-03 12:27:09.840 ,3,1,0.,4.8,0.,4.8,0.,4.8,0.,4.8
1979-08-03 12:27:14.640 ,3,1,0.,4.8,0.,4.8,0.,4.8,0.,4.8
1979-08-03 12:27:19.440 ,3,1,0.,4.8,1.,4.8,0.,4.8,0.,4.8
1979-08-03 12:27:24.240 ,3,1,0.,4.8,0.,4.8,0.,4.8,0.,4.8
1979-08-03 12:27:29.040 ,3,1,0.,4.8,0.,4.8,0.,4.8,0.,4.8
1979-08-03 12:27:33.840 ,0,1,0.,4.8,1.,4.8,0.,4.8,0.,4.8
1979-08-03 12:27:38.640 ,0,1,0.,4.8,0.,4.8,0.,4.8,0.,4.8
1979-08-03 12:27:43.440 ,0,1,0.,4.8,0.,4.8,0.,4.8,0.,4.8
1979-08-03 12:27:48.240 ,0,1,0.,4.8,0.,4.8,0.,4.8,0.,4.8
1979-08-03 12:27:53.040 ,0,1,0.,4.8,0.,4.8,0.,4.8,0.,4.8
1979-08-03 12:27:57.840 ,4,1,0.,4.8,0.,4.8,0.,4.8,0.,4.8
1979-08-03 12:28:02.640 ,4,1,0.,4.8,0.,4.8,0.,4.8,0.,4.8
1979-08-03 12:28:07.440 ,4,1,0.,4.8,0.,4.8,0.,4.8,0.,4.8
1979-08-03 12:28:12.240 ,4,1,1.,4.8,0.,4.8,0.,4.8,0.,4.8
1979-08-03 12:28:17.040 ,4,1,0.,4.8,0.,4.8,0.,4.8,0.,4.8
1979-08-03 12:28:21.840 ,7,1,0.,4.8,0.,4.8,0.,4.8,0.,4.8
1979-08-03 12:28:26.640 ,7,1,0.,4.8,0.,4.8,0.,4.8,0.,4.8
1979-08-03 12:28:31.440 ,7,1,0.,4.8,0.,4.8,0.,4.8,0.,4.8
1979-08-03 12:28:36.240 ,7,1,0.,4.8,0.,4.8,0.,4.8,0.,4.8
1979-08-03 12:28:41.040 ,7,1,0.,4.8,0.,4.8,0.,4.8,0.,4.8
1979-08-03 12:28:45.840 ,3,1,0.,4.8,0.,4.8,0.,4.8,0.,4.8
1979-08-03 12:28:50.640 ,3,1,,0,,0,,0,,0
1979-08-03 12:28:55.440 ,3,1,0.,4.8,0.,4.8,1.,4.8,0.,4.8
1979-08-03 12:29:00.240 ,3,1,0.,4.8,0.,4.8,0.,4.8,0.,4.8
1979-08-03 12:29:05.040 ,3,1,0.,4.8,0.,4.8,0.,4.8,0.,4.8
1979-08-03 12:29:09.840 ,0,1,1.,4.8,0.,4.8,0.,4.8,0.,4.8
1979-08-03 12:29:14.640 ,0,1,0.,4.8,0.,4.8,0.,4.8,0.,4.8
1979-08-03 12:29:19.440 ,0,1,0.,4.8,0.,4.8,0.,4.8,0.,4.8
1979-08-03 12:29:24.240 ,0,1,0.,4.8,1.,4.8,1.,4.8,0.,4.8
1979-08-03 12:29:29.040 ,0,1,0.,4.8,0.,4.8,0.,4.8,0.,4.8
1979-08-03 12:29:33.840 ,0,0,1.,4.8,0.,4.8,0.,4.8,0.,4.8
1979-08-03 12:29:38.640 ,0,0,1.,4.8,0.,4.8,0.,4.8,0.,4.8
1979-08-03 12:29:43.440 ,0,0,0.,4.8,0.,4.8,0.,4.8,0.,4.8
1979-08-03 12:29:48.240 ,0,0,0.,4.8,0.,4.8,0.,4.8,0.,4.8
1979-08-03 12:29:53.040 ,0,0,0.,4.8,0.,4.8,1.,4.8,0.,4.8
1979-08-03 12:29:57.840 ,0,0,0.,4.8,0.,4.8,0.,4.8,0.,4.8
1979-08-03 12:30:02.640 ,0,0,1.,4.8,0.,4.8,0.,4.8,0.,4.8
1979-08-03 12:30:07.440 ,0,0,0.,4.8,0.,4.8,0.,4.8,0.,4.8
1979-08-03 12:30:12.240 ,0,0,0.,4.8,0.,4.8,0.,4.8,0.,4.8
1979-08-03 12:30:17.040 ,0,0,1.,4.8,0.,4.8,0.,4.8,0.,4.8
1979-08-03 12:30:21.840 ,5,0,0.,4.8,0.,4.8,0.,4.8,0.,4.8
1979-08-03 12:30:26.640 ,5,0,0.,4.8,0.,4.8,0.,4.8,0.,4.8
1979-08-03 12:30:31.440 ,5,0,1.,4.8,0.,4.8,0.,4.8,0.,4.8
1979-08-03 12:30:36.240 ,5,0,0.,4.8,0.,4.8,0.,4.8,0.,4.8
1979-08-03 12:30:41.040 ,5,0,0.,4.8,0.,4.8,0.,4.8,0.,4.8
1979-08-03 12:30:45.840 ,5,0,1.,4.8,0.,4.8,0.,4.8,0.,4.8
1979-08-03 12:30:50.640 ,5,0,0.,4.8,0.,4.8,0.,4.8,0.,4.8
1979-08-03 12:30:55.440 ,5,0,0.,4.8,0.,4.8,0.,4.8,0.,4.8
1979-08-03 12:31:00.240 ,5,0,0.,4.8,0.,4.8,0.,4.8,0.,4.8
1979-08-03 12:31:05.040 ,5,0,0.,4.8,0.,4.8,0.,4.8,0.,4.8
1979-08-03 12:31:09.840 ,4,0,1.,4.8,0.,4.8,0.,4.8,0.,4.8
1979-08-03 12:31:14.640 ,4,0,0.,4.8,0.,4.8,0.,4.8,0.,4.8
1979-08-03 12:31:19.440 ,4,0,0.,4.8,0.,4.8,0.,4.8,0.,4.8
1979-08-03 12:31:24.240 ,4,0,0.,4.8,0.,4.8,0.,4.8,0.,4.8
1979-08-03 12:31:29.040 ,4,0,0.,4.8,0.,4.8,0.,4.8,0.,4.8
1979-08-03 12:31:33.840 ,4,0,1.,4.8,0.,4.8,0.,4.8,0.,4.8
1979-08-03 12:31:38.640 ,4,0,0.,4.8,0.,4.8,0.,4.8,0.,4.8
1979-08-03 12:31:43.440 ,4,0,1.,4.8,0.,4.8,1.,4.8,0.,4.8
1979-08-03 12:31:48.240 ,4,0,0.,4.8,1.,4.8,0.,4.8,0.,4.8
1979-08-03 12:31:53.040 ,4,0,0.,4.8,0.,4.8,1.,4.8,0.,4.8
1979-08-03 12:31:57.840 ,3,0,0.,4.8,0.,4.8,0.,4.8,0.,4.8
1979-08-03 12:32:02.640 ,3,0,0.,4.8,0.,4.8,0.,4.8,0.,4.8
1979-08-03 12:32:07.440 ,3,0,1.,4.8,0.,4.8,0.,4.8,0.,4.8
1979-08-03 12:32:12.240 ,3,0,0.,4.8,0.,4.8,0.,4.8,0.,4.8
1979-08-03 12:32:17.040 ,3,0,0.,4.8,0.,4.8,0.,4.8,0.,4.8
1979-08-03 12:32:21.840 ,3,0,0.,4.8,0.,4.8,0.,4.8,0.,4.8
1979-08-03 12:32:26.640 ,3,0,0.,4.8,0.,4.8,0.,4.8,0.,4.8
1979-08-03 12:32:31.440 ,3,0,0.,4.8,0.,4.8,0.,4.8,0.,4.8
1979-08-03 12:32:36.240 ,3,0,0.,4.8,0.,4.8,0.,4.8,0.,4.8
1979-08-03 12:32:41.040 ,3,0,0.,4.8,0.,4.8,0.,4.8,0.,4.8
1979-08-03 12:32:45.840 ,2,0,0.,4.8,0.,4.8,0.,4.8,0.,4.8
1979-08-03 12:32:50.640 ,2,0,2.,4.8,0.,4.8,0.,4.8,0.,4.8
1979-08-03 12:32:55.440 ,2,0,0.,4.8,0.,4.8,0.,4.8,0.,4.8
1979-08-03 12:33:00.240 ,2,0,1.,4.8,0.,4.8,1.,4.8,0.,4.8
1979-08-03 12:33:05.040 ,2,0,0.,4.8,0.,4.8,0.,4.8,0.,4.8
1979-08-03 12:33:09.840 ,0,0,0.,4.8,0.,4.8,0.,4.8,0.,4.8
1979-08-03 12:33:14.640 ,0,0,0.,4.8,0.,4.8,0.,4.8,0.,4.8